Monterey, CA

8:27 PM PDT on September 22, 2017 (GMT -0700)
Monterey Peninsula

Weather History for KMRY - December, 2012

Change the Weather History Date:

Tuesday, December 11, 2012

  Actual Average Record
Temperature  
Mean Temperature 52 °F 52 °F  
Max Temperature 61 °F 61 °F 69 °F (2014)
Min Temperature 43 °F 42 °F 32 °F (2013)
Degree Days  
Heating Degree Days 13    
Month to date heating degree days 110  
Since 1 July heating degree days 1041  
Cooling Degree Days 0    
Month to date cooling degree days 0  
Year to date cooling degree days 36  
Growing Degree Days 2 (Base 50)    
Moisture  
Dew Point 45 °F    
Average Humidity 67    
Maximum Humidity 83    
Minimum Humidity 51    
Precipitation  
Precipitation 0.00 in - 3.64 in (2014)
Month to date precipitation 1.57  
Year to date precipitation 13.40  
Since 1 July precipitation 5.75  
Sea Level Pressure  
Sea Level Pressure 30.01 in    
Wind  
Wind Speed 5 mph (WSW)    
Max Wind Speed 12 mph    
Max Gust Speed 16 mph    
Visibility 10 miles    
Events      
T = Trace of Precipitation, MM = Missing Value Source: NWS Daily Summary

Daily Weather History Graph

Daily Weather History Graph

Search for Another Location

Airport or City:

Trip Planner

Search our weather history database for the weather conditions in past years. The results will help you decide how hot, cold, wet, or windy it might be!

Date:

Astronomy

Dec. 11, 2012 Rise Set
Actual Time 7:09 AM PST 4:52 PM PST
Civil Twilight 6:41 AM PST 5:20 PM PST
Nautical Twilight 6:08 AM PST 5:53 PM PST
Astronomical Twilight 5:37 AM PST 6:24 PM PST
Moon 5:12 AM PST (12/11) 3:34 PM PST (12/11)
Length of Visible Light 10h 39m
Length of Day
9h 42m
Waning Crescent, 4% of the Moon is Illuminated
Dec 11
Waning Crescent
Dec 13
New
Dec 19
First Quarter
Dec 28
Full
Jan 4
Last Quarter

Hourly Weather History & Observations

Time (PST) Temp. Windchill Dew Point Humidity Pressure Visibility Wind Dir Wind Speed Gust Speed Precip Events Conditions
12:54 AM 46.0 °F 44.8 °F 41.0 °F 83% 30.12 in 10.0 mi East 3.5 mph - N/A   Clear
1:54 AM 46.0 °F - 41.0 °F 83% 30.13 in 10.0 mi Calm Calm - N/A   Clear
2:54 AM 45.0 °F 40.6 °F 39.0 °F 80% 30.11 in 10.0 mi East 8.1 mph - N/A   Clear
3:54 AM 45.0 °F 41.8 °F 39.0 °F 80% 30.09 in 10.0 mi ESE 5.8 mph - N/A   Clear
4:54 AM 44.1 °F 40.1 °F 37.0 °F 76% 30.08 in 10.0 mi East 6.9 mph - N/A   Clear
5:54 AM 45.0 °F 43.5 °F 36.0 °F 71% 30.07 in 10.0 mi East 3.5 mph - N/A   Clear
6:54 AM 44.1 °F - 36.0 °F 73% 30.08 in 10.0 mi Calm Calm - N/A   Clear
7:54 AM 45.0 °F 43.5 °F 37.0 °F 74% 30.07 in 10.0 mi East 3.5 mph - N/A   Clear
8:54 AM 53.1 °F - 39.9 °F 61% 30.07 in 10.0 mi ENE 3.5 mph - N/A   Clear
9:54 AM 57.9 °F - 39.9 °F 51% 30.08 in 10.0 mi Calm Calm - N/A   Clear
10:54 AM 59.0 °F - 45.0 °F 60% 30.05 in 10.0 mi NW 4.6 mph - N/A   Clear
11:54 AM 59.0 °F - 46.0 °F 62% 30.03 in 10.0 mi NW 6.9 mph - N/A   Clear
12:54 PM 59.0 °F - 46.9 °F 64% 30.01 in 10.0 mi NW 8.1 mph - N/A   Clear
1:54 PM 57.9 °F - 50.0 °F 75% 30.00 in 10.0 mi West 8.1 mph - N/A   Clear
2:54 PM 57.0 °F - 50.0 °F 77% 30.00 in 10.0 mi West 10.4 mph - N/A   Scattered Clouds
3:16 PM 55.4 °F - 50.0 °F 82% 29.96 in 10.0 mi West 8.1 mph - N/A   Mostly Cloudy
3:54 PM 54.0 °F - 48.9 °F 83% 29.99 in 10.0 mi WSW 8.1 mph - N/A   Overcast
4:16 PM 53.6 °F - 48.2 °F 82% 29.95 in 10.0 mi West 8.1 mph - N/A   Overcast
4:54 PM 54.0 °F - 48.9 °F 83% 29.99 in 10.0 mi WSW 9.2 mph - N/A   Overcast
5:11 PM 53.6 °F - 48.2 °F 82% 29.94 in 10.0 mi WSW 6.9 mph - N/A   Overcast
5:54 PM 54.0 °F - 48.9 °F 83% 29.99 in 10.0 mi WSW 8.1 mph - N/A   Overcast
6:27 PM 53.6 °F - 48.2 °F 82% 29.94 in 10.0 mi SW 6.9 mph - N/A   Overcast
6:54 PM 54.0 °F - 48.0 °F 80% 29.97 in 10.0 mi WSW 5.8 mph - N/A   Overcast
7:50 PM 53.6 °F - 48.2 °F 82% 29.91 in 10.0 mi Calm Calm - N/A   Overcast
7:54 PM 53.1 °F - 48.0 °F 83% 29.95 in 10.0 mi Calm Calm - N/A   Overcast
8:54 PM 54.0 °F - 48.0 °F 80% 29.97 in 10.0 mi WSW 8.1 mph - N/A   Overcast
9:54 PM 54.0 °F - 46.0 °F 75% 29.97 in 10.0 mi SW 5.8 mph - N/A   Overcast
10:20 PM 53.6 °F - 44.6 °F 72% 29.93 in 10.0 mi SW 5.8 mph - N/A   Overcast
10:54 PM 54.0 °F - 45.0 °F 72% 29.97 in 10.0 mi SW 5.8 mph - N/A   Overcast
11:54 PM 53.1 °F - 45.0 °F 74% 29.96 in 10.0 mi Variable 4.6 mph - N/A   Overcast